period_start,C,m1,H,J0,J1,J2,J3,J4,J5,JA,JB,JC,JD,JJ,JK,JN,#
2014-06-30 00:04:49,0.00,0.12,0.00,25.68,29.80,31.98,9.38,36.60,1006.85,2030.00,3438.00,3280.00,3566.25,500.14,487.59,20.53,0000 0000 0000 0000 000000
2014-06-30 00:09:50,0.00,0.12,0.00,25.76,29.81,32.00,9.31,36.56,1006.84,2030.00,3438.00,3280.00,3566.07,499.89,487.20,20.58,0000 0000 0000 0000 000000
2014-06-30 00:14:51,0.00,0.12,0.00,25.82,29.82,32.03,9.34,36.54,1006.76,2030.00,3437.98,3279.96,3566.00,500.00,487.11,20.62,0000 0000 0000 0000 000000
2014-06-30 00:19:52,0.00,0.12,0.00,25.90,29.84,32.06,9.43,36.68,1006.59,2030.00,3437.87,3279.93,3566.00,500.09,487.22,20.66,0000 0000 0000 0000 000000
2014-06-30 00:24:54,0.03,0.12,0.00,25.96,29.86,32.10,9.31,36.67,1006.51,2030.00,3437.24,3279.33,3565.97,499.83,486.82,20.70,0000 0000 0000 0000 000000
2014-06-30 00:29:55,0.01,0.12,0.00,26.02,29.89,32.13,9.31,36.93,1006.50,2030.00,3437.00,3279.02,3565.47,500.00,486.74,20.74,0000 0000 0000 0000 000000
2014-06-30 00:34:56,0.00,0.12,0.00,26.05,29.91,32.18,9.28,36.89,1006.38,2030.00,3436.96,3279.00,3565.03,499.54,486.02,20.78,0000 0000 0000 0000 000000
2014-06-30 00:39:58,0.00,0.12,0.00,26.10,29.95,32.23,9.22,36.81,1006.37,2029.98,3436.60,3278.93,3564.99,499.61,486.22,20.83,0000 0000 0000 0000 000000
2014-06-30 00:44:59,0.03,0.12,0.00,26.16,29.98,32.26,9.33,36.99,1006.37,2029.95,3436.07,3278.44,3564.87,499.96,486.32,20.87,0000 0000 0000 0000 000000
2014-06-30 00:50:00,-0.01,0.12,0.00,26.21,30.01,32.31,9.28,36.78,1006.37,2029.80,3436.00,3278.04,3564.23,499.67,486.20,20.91,0000 0000 0000 0000 000000
2014-06-30 00:55:02,-0.03,0.12,0.00,26.26,30.05,32.35,9.35,36.82,1006.36,2029.35,3435.80,3277.99,3564.00,499.65,485.73,20.95,0000 0000 0000 0000 000000
2014-06-30 01:00:03,-0.01,0.12,0.00,26.29,30.08,32.39,9.17,36.63,1006.38,2029.10,3435.16,3277.84,3563.93,499.68,485.85,21.00,0000 0000 0000 0000 000000
2014-06-30 01:05:04,0.03,0.12,0.00,26.33,30.12,32.44,9.24,36.48,1006.38,2029.03,3435.00,3277.16,3563.25,499.67,485.91,21.04,0000 0000 0000 0000 000000
2014-06-30 01:10:05,0.00,0.12,0.00,26.39,30.16,32.48,9.36,36.88,1006.37,2029.00,3434.77,3277.00,3562.99,499.94,485.93,21.08,0000 0000 0000 0000 000000
2014-06-30 01:15:06,0.04,0.12,0.00,26.43,30.20,32.52,9.24,36.82,1006.36,2028.99,3434.08,3276.64,3562.52,499.41,485.61,21.12,0000 0000 0000 0000 000000
2014-06-30 01:20:07,0.01,0.12,0.00,26.47,30.23,32.57,9.30,36.62,1006.37,2028.94,3433.96,3276.05,3562.01,499.89,485.85,21.16,0000 0000 0000 0000 000000
2014-06-30 01:25:08,-0.05,0.12,0.00,26.48,30.27,32.61,9.34,36.52,1006.36,2028.52,3433.37,3275.99,3561.82,499.99,486.02,21.20,0000 0000 0000 0000 000000
2014-06-30 01:30:09,0.01,0.12,0.00,26.51,30.31,32.65,9.37,36.63,1006.35,2028.10,3433.02,3275.55,3561.13,500.47,486.43,21.25,0000 0000 0000 0000 000000
2014-06-30 01:35:10,0.01,0.12,0.00,26.54,30.35,32.69,9.21,36.59,1006.31,2028.00,3432.74,3275.02,3560.93,499.57,485.37,21.29,0000 0000 0000 0000 000000
2014-06-30 01:40:11,0.02,0.12,0.00,26.59,30.38,32.73,9.30,36.58,1006.28,2028.00,3432.06,3274.89,3560.27,500.19,485.97,21.33,0000 0000 0000 0000 000000
2014-06-30 01:45:12,0.02,0.12,0.00,26.63,30.42,32.76,9.26,36.65,1006.30,2027.99,3431.99,3274.27,3560.00,500.01,485.65,21.37,0000 0000 0000 0000 000000
2014-06-30 01:50:14,0.01,0.12,0.00,26.65,30.46,32.81,9.33,36.59,1006.32,2027.96,3431.47,3274.01,3559.86,500.01,485.64,21.41,0000 0000 0000 0000 000000
2014-06-30 01:55:15,-0.01,0.12,0.00,26.67,30.50,32.85,9.30,36.62,1006.34,2027.78,3431.03,3273.93,3559.22,499.87,485.52,21.46,0000 0000 0000 0000 000000
2014-06-30 02:00:16,-0.01,0.12,0.00,26.70,30.54,32.88,9.33,36.55,1006.36,2027.27,3430.80,3273.24,3558.98,500.14,485.69,21.50,0000 0000 0000 0000 000000
2014-06-30 02:05:17,0.00,0.12,0.00,26.73,30.57,32.92,9.25,36.61,1006.36,2027.04,3430.08,3273.00,3558.44,499.79,485.24,21.54,0000 0000 0000 0000 000000
2014-06-30 02:10:18,0.00,0.12,0.00,26.77,30.61,32.96,9.33,36.65,1006.36,2027.00,3429.99,3272.95,3558.01,500.01,485.59,21.58,0000 0000 0000 0000 000000
2014-06-30 02:15:19,0.02,0.12,0.00,26.80,30.65,32.99,9.29,36.72,1006.38,2027.00,3429.71,3272.40,3557.96,500.04,485.50,21.62,0000 0000 0000 0000 000000
2014-06-30 02:20:20,0.03,0.13,0.00,26.84,30.68,33.03,9.16,36.74,1006.37,2026.99,3429.04,3272.01,3557.18,499.00,484.45,21.67,0000 0000 0000 0000 000000
2014-06-30 02:25:21,0.01,0.13,0.00,26.85,30.71,33.06,9.37,36.74,1006.38,2026.95,3428.84,3271.81,3556.99,500.42,485.71,21.71,0000 0000 0000 0000 000000
2014-06-30 02:30:22,-0.01,0.13,0.00,26.87,30.75,33.10,9.28,36.78,1006.38,2026.61,3428.10,3271.11,3556.43,499.85,485.20,21.75,0000 0000 0000 0000 000000
2014-06-30 02:35:23,-0.03,0.12,0.00,26.90,30.79,33.13,9.27,36.68,1006.41,2026.12,3427.97,3270.99,3556.01,499.87,485.14,21.79,0000 0000 0000 0000 000000
2014-06-30 02:40:24,0.03,0.12,0.00,26.92,30.82,33.16,9.28,36.87,1006.42,2026.03,3427.37,3270.55,3555.80,499.86,485.01,21.83,0000 0000 0000 0000 000000
2014-06-30 02:45:25,0.01,0.13,0.00,26.93,30.85,33.19,9.32,37.23,1006.49,2026.00,3427.00,3270.02,3555.09,500.01,485.13,21.87,0000 0000 0000 0000 000000
2014-06-30 02:50:26,0.01,0.13,0.00,26.96,30.89,33.23,9.28,36.90,1006.50,2026.00,3426.55,3269.91,3554.96,500.32,485.38,21.92,0000 0000 0000 0000 000000
2014-06-30 02:55:28,0.03,0.13,0.00,27.01,30.92,33.26,9.32,37.02,1006.56,2025.92,3426.02,3269.25,3554.25,499.95,485.16,21.96,0000 0000 0000 0000 000000
2014-06-30 03:00:28,-0.01,0.13,0.00,27.03,30.95,33.29,9.27,37.09,1006.76,2025.76,3425.93,3269.00,3554.00,500.21,485.48,22.00,0000 0000 0000 0000 000000
2014-06-30 03:05:29,-0.02,0.13,0.00,27.04,30.98,33.32,9.36,37.17,1006.80,2025.33,3425.31,3268.89,3553.68,499.87,485.22,22.04,0000 0000 0000 0000 000000
2014-06-30 03:10:30,0.02,0.13,0.00,27.06,31.01,33.34,9.35,36.80,1006.78,2025.06,3424.99,3268.14,3553.05,500.18,485.51,22.08,0000 0000 0000 0000 000000
2014-06-30 03:15:31,0.01,0.13,0.00,27.09,31.04,33.37,9.25,36.99,1006.80,2025.00,3424.61,3267.99,3552.83,499.48,484.69,22.13,0000 0000 0000 0000 000000
2014-06-30 03:20:32,0.03,0.13,0.00,27.10,31.07,33.41,9.29,36.90,1006.77,2024.99,3424.03,3267.64,3552.12,499.81,484.82,22.17,0000 0000 0000 0000 000000
2014-06-30 03:25:33,0.01,0.13,0.00,27.13,31.10,33.43,9.24,36.90,1006.82,2024.97,3424.00,3267.08,3552.00,499.58,484.82,22.21,0000 0000 0000 0000 000000
2014-06-30 03:30:35,0.00,0.13,0.00,27.15,31.13,33.46,9.35,36.93,1006.84,2024.84,3423.66,3267.00,3551.82,500.14,485.07,22.25,0000 0000 0000 0000 000000
2014-06-30 03:35:36,-0.02,0.13,0.00,27.16,31.16,33.49,9.31,37.10,1006.70,2024.40,3423.05,3266.84,3551.10,499.87,484.92,22.29,0000 0000 0000 0000 000000
2014-06-30 03:40:37,0.00,0.13,0.00,27.18,31.19,33.51,9.34,37.37,1006.41,2024.07,3422.88,3266.11,3550.93,500.39,485.12,22.33,0000 0000 0000 0000 000000
2014-06-30 03:45:38,0.02,0.13,0.00,27.19,31.21,33.54,9.37,37.69,1006.38,2024.01,3422.15,3265.99,3550.21,499.96,484.56,22.38,0000 0000 0000 0000 000000
2014-06-30 03:50:39,0.02,0.13,0.00,27.23,31.24,33.56,9.33,37.32,1006.53,2024.00,3421.98,3265.61,3549.99,500.39,485.23,22.42,0000 0000 0000 0000 000000
2014-06-30 03:55:40,0.01,0.13,0.00,27.23,31.26,33.59,9.34,37.35,1006.85,2024.00,3421.80,3265.16,3549.87,500.06,485.01,22.46,0000 0000 0000 0000 000000
2014-06-30 04:00:41,0.02,0.13,0.00,27.23,31.29,33.61,9.32,37.20,1006.85,2023.99,3421.09,3265.00,3549.15,500.24,485.33,22.50,0000 0000 0000 0000 000000
2014-06-30 04:05:42,-0.01,0.13,0.00,27.26,31.31,33.64,9.33,37.32,1006.84,2023.89,3421.00,3264.93,3548.99,499.80,484.61,22.54,0000 0000 0000 0000 000000
2014-06-30 04:10:44,0.01,0.13,0.00,27.26,31.34,33.65,9.33,37.12,1006.85,2023.72,3420.73,3264.44,3548.75,499.89,484.76,22.59,0000 0000 0000 0000 000000
2014-06-30 04:15:45,-0.02,0.13,0.00,27.28,31.36,33.67,9.29,37.38,1006.85,2023.26,3420.05,3264.01,3548.06,499.93,484.79,22.63,0000 0000 0000 0000 000000
2014-06-30 04:20:46,-0.00,0.13,0.00,27.30,31.37,33.70,9.33,37.52,1006.85,2023.08,3419.97,3263.99,3547.99,499.87,484.83,22.67,0000 0000 0000 0000 000000
2014-06-30 04:25:47,0.04,0.13,0.00,27.31,31.39,33.72,9.30,37.62,1006.85,2023.00,3419.35,3263.52,3547.51,500.16,484.93,22.71,0000 0000 0000 0000 000000
2014-06-30 04:30:48,0.01,0.13,0.00,27.33,31.41,33.73,9.37,37.52,1006.85,2023.00,3418.98,3263.02,3547.01,499.88,484.64,22.75,0000 0000 0000 0000 000000
2014-06-30 04:35:49,0.02,0.13,0.00,27.34,31.43,33.76,9.31,37.41,1006.85,2023.00,3418.46,3262.99,3546.77,499.95,484.78,22.80,0000 0000 0000 0000 000000
2014-06-30 04:40:50,0.01,0.13,0.00,27.35,31.45,33.78,9.26,37.34,1006.84,2023.00,3418.01,3262.95,3546.23,499.60,484.85,22.84,0000 0000 0000 0000 000000
2014-06-30 04:45:51,0.02,0.14,0.00,27.36,31.47,33.79,9.32,37.26,1006.85,2022.98,3417.98,3262.34,3546.00,500.07,484.79,22.88,0000 0000 0000 0000 000000
2014-06-30 04:50:52,0.00,0.14,0.00,27.38,31.50,33.81,9.34,37.14,1006.85,2022.90,3417.40,3262.01,3545.88,500.35,485.01,22.92,0000 0000 0000 0000 000000
2014-06-30 04:55:53,-0.03,0.14,0.00,27.40,31.51,33.83,9.33,36.99,1006.85,2022.65,3417.01,3261.99,3545.30,500.18,484.86,22.96,0000 0000 0000 0000 000000
2014-06-30 05:00:54,-0.01,0.14,0.00,27.41,31.53,33.86,9.33,37.16,1006.85,2022.31,3416.90,3261.63,3545.00,500.29,484.92,23.00,0000 0000 0000 0000 000000
2014-06-30 05:05:55,0.01,0.14,0.00,27.42,31.55,33.87,9.30,36.99,1006.85,2022.10,3416.22,3261.09,3544.88,500.13,484.83,23.05,0000 0000 0000 0000 000000
2014-06-30 05:10:56,0.00,0.14,0.00,27.42,31.57,33.89,9.29,37.08,1006.85,2022.03,3416.01,3261.00,3544.18,499.85,484.47,23.09,0000 0000 0000 0000 000000
2014-06-30 05:15:57,0.01,0.14,0.00,27.42,31.59,33.90,9.27,36.95,1006.85,2022.01,3415.86,3260.94,3544.00,500.05,484.84,23.13,0000 0000 0000 0000 000000
2014-06-30 05:20:58,0.03,0.14,0.00,27.44,31.60,33.92,9.28,37.03,1006.85,2022.00,3415.17,3260.50,3543.85,499.79,484.57,23.17,0000 0000 0000 0000 000000
2014-06-30 05:25:59,0.02,0.14,0.00,27.46,31.62,33.94,9.35,37.13,1006.85,2021.99,3415.00,3260.04,3543.19,500.08,484.66,23.21,0000 0000 0000 0000 000000
2014-06-30 05:31:00,0.00,0.14,0.00,27.45,31.64,33.96,9.28,37.16,1006.85,2021.99,3414.81,3260.00,3543.00,499.91,484.47,23.26,0000 0000 0000 0000 000000
2014-06-30 05:36:02,0.01,0.14,0.00,27.46,31.65,33.97,9.32,37.13,1006.85,2021.98,3414.21,3259.98,3542.99,500.10,484.79,23.30,0000 0000 0000 0000 000000
2014-06-30 05:41:03,0.03,0.14,0.00,27.46,31.67,33.98,9.34,37.19,1006.85,2021.98,3414.00,3259.64,3542.61,500.21,484.85,23.34,0000 0000 0000 0000 000000
2014-06-30 05:46:04,0.01,0.14,0.00,27.47,31.67,33.99,9.30,37.17,1006.85,2021.97,3413.83,3259.03,3542.01,500.26,484.87,23.38,0000 0000 0000 0000 000000
2014-06-30 05:51:05,0.01,0.14,0.00,27.48,31.70,34.01,9.38,37.15,1006.85,2021.94,3413.18,3259.00,3541.99,500.23,484.94,23.42,0000 0000 0000 0000 000000
2014-06-30 05:56:07,0.00,0.14,0.00,27.47,31.70,34.03,9.38,37.17,1006.85,2021.93,3413.02,3259.00,3541.90,500.10,484.73,23.47,0000 0000 0000 0000 000000
2014-06-30 06:01:08,0.00,0.14,0.00,27.46,31.71,34.03,9.34,37.20,1006.85,2021.83,3412.97,3258.83,3541.25,500.17,485.00,23.51,0000 0000 0000 0000 000000
2014-06-30 06:06:09,-0.01,0.14,0.00,27.45,31.72,34.05,9.30,37.11,1006.85,2021.44,3412.39,3258.15,3541.00,499.70,484.40,23.55,0000 0000 0000 0000 000000
2014-06-30 06:11:09,-0.00,0.14,0.00,27.45,31.72,34.05,9.29,37.16,1006.86,2021.20,3412.02,3258.00,3540.91,499.73,484.59,23.59,0000 0000 0000 0000 000000
2014-06-30 06:16:10,-0.01,0.14,0.00,27.45,31.75,34.06,9.33,37.07,1006.86,2021.14,3412.00,3258.00,3540.67,500.24,485.05,23.63,0000 0000 0000 0000 000000
2014-06-30 06:21:11,0.01,0.14,0.00,27.44,31.75,34.07,9.30,37.11,1006.86,2021.12,3411.96,3257.98,3540.18,499.98,484.62,23.68,0000 0000 0000 0000 000000
2014-06-30 06:26:13,0.01,0.14,0.00,27.45,31.75,34.08,9.35,37.29,1006.88,2021.08,3411.49,3257.81,3540.00,499.94,484.57,23.72,0000 0000 0000 0000 000000
2014-06-30 06:31:14,0.01,0.14,0.00,27.47,31.76,34.09,9.35,37.18,1006.87,2021.01,3411.10,3257.53,3540.00,499.85,484.40,23.76,0000 0000 0000 0000 000000
2014-06-30 06:36:15,0.01,0.14,0.00,27.49,31.77,34.09,9.32,37.19,1006.86,2021.00,3411.00,3257.05,3539.92,500.01,484.71,23.80,0000 0000 0000 0000 000000
2014-06-30 06:41:16,0.01,0.14,0.00,27.51,31.77,34.09,9.31,37.05,1006.90,2021.00,3410.99,3257.01,3539.43,499.98,484.63,23.84,0000 0000 0000 0000 000000
2014-06-30 06:46:17,0.00,0.14,0.00,27.49,31.78,34.09,9.37,37.13,1007.03,2021.00,3410.87,3257.00,3539.10,500.09,484.83,23.88,0000 0000 0000 0000 000000
2014-06-30 06:51:18,0.01,0.14,0.00,27.49,31.79,34.10,9.34,36.92,1007.01,2021.00,3410.37,3256.99,3539.00,500.49,485.22,23.93,0000 0000 0000 0000 000000
2014-06-30 06:56:19,0.00,0.14,0.00,27.51,31.80,34.11,9.30,37.02,1006.87,2021.00,3410.07,3256.97,3538.99,499.86,484.45,23.97,0000 0000 0000 0000 000000
2014-06-30 07:01:19,0.00,0.14,0.00,27.51,31.80,34.11,9.27,37.06,1006.87,2021.00,3410.01,3256.83,3538.97,499.89,484.62,24.01,0000 0000 0000 0000 000000
2014-06-30 07:06:20,0.02,0.15,0.00,27.51,31.80,34.11,9.31,37.01,1006.86,2021.00,3409.96,3256.31,3538.65,500.28,484.87,24.05,0000 0000 0000 0000 000000
2014-06-30 07:11:21,0.01,0.15,0.00,27.52,31.80,34.11,9.32,37.02,1006.86,2020.99,3409.72,3256.03,3538.10,500.21,484.72,24.09,0000 0000 0000 0000 000000
2014-06-30 07:16:22,0.01,0.15,0.00,27.53,31.82,34.12,9.35,37.17,1006.86,2020.99,3409.23,3256.01,3538.01,500.27,484.67,24.14,0000 0000 0000 0000 000000
2014-06-30 07:21:23,0.00,0.15,0.00,27.54,31.82,34.12,9.31,37.18,1006.86,2020.99,3409.00,3256.00,3538.00,500.27,484.79,24.18,0000 0000 0000 0000 000000
2014-06-30 07:26:24,0.00,0.15,0.00,27.54,31.82,34.13,9.31,37.27,1006.86,2020.99,3408.98,3255.98,3537.94,499.95,484.45,24.22,0000 0000 0000 0000 000000
2014-06-30 07:31:25,0.01,0.15,0.00,27.56,31.82,34.13,9.37,37.04,1006.86,2020.97,3408.80,3255.83,3537.53,500.41,484.75,24.26,0000 0000 0000 0000 000000
2014-06-30 07:36:26,0.03,0.15,0.00,27.58,31.83,34.14,9.27,37.11,1006.87,2020.95,3408.15,3255.35,3537.10,499.85,484.30,24.30,0000 0000 0000 0000 000000
2014-06-30 07:41:27,0.00,0.15,0.00,27.58,31.84,34.14,9.28,37.22,1006.90,2020.92,3408.00,3255.04,3537.01,500.29,484.62,24.34,0000 0000 0000 0000 000000
2014-06-30 07:46:28,-0.01,0.15,0.00,27.59,31.85,34.14,9.34,37.08,1007.15,2020.86,3407.98,3255.00,3536.98,500.06,484.62,24.39,0000 0000 0000 0000 000000
2014-06-30 07:51:29,0.00,0.15,0.00,27.60,31.85,34.14,9.29,37.00,1007.33,2020.89,3407.92,3255.00,3536.96,499.74,484.35,24.43,0000 0000 0000 0000 000000
2014-06-30 07:56:30,0.02,0.15,0.00,27.61,31.85,34.15,9.32,36.93,1007.34,2020.88,3407.40,3254.99,3536.68,499.93,484.64,24.47,0000 0000 0000 0000 000000
2014-06-30 08:01:31,0.00,0.15,0.00,27.61,31.85,34.15,9.32,36.98,1007.34,2020.79,3407.04,3254.85,3536.15,500.14,484.86,24.51,0000 0000 0000 0000 000000
2014-06-30 08:06:32,-0.00,0.15,0.00,27.62,31.85,34.15,9.31,36.95,1007.34,2020.57,3407.00,3254.35,3536.01,500.12,484.80,24.55,0000 0000 0000 0000 000000
2014-06-30 08:11:34,-0.01,0.15,0.00,27.65,31.87,34.16,9.40,36.95,1007.34,2020.49,3406.88,3254.09,3536.00,500.20,484.69,24.60,0000 0000 0000 0000 000000
2014-06-30 08:16:35,0.01,0.15,0.00,27.67,31.87,34.17,9.29,37.03,1007.35,2020.32,3406.24,3254.00,3535.97,499.75,484.33,24.64,0000 0000 0000 0000 000000
2014-06-30 08:21:35,0.01,0.15,0.00,27.68,31.87,34.16,9.28,36.83,1007.40,2020.38,3406.03,3254.00,3535.65,500.26,484.85,24.68,0000 0000 0000 0000 000000
2014-06-30 08:26:36,0.00,0.15,0.00,27.70,31.88,34.17,9.33,36.83,1007.58,2020.27,3406.00,3253.99,3535.12,500.27,484.87,24.72,0000 0000 0000 0000 000000
2014-06-30 08:31:38,0.00,0.15,0.00,27.71,31.90,34.18,9.36,36.66,1007.75,2020.26,3405.96,3253.94,3535.01,500.18,484.89,24.76,0000 0000 0000 0000 000000
2014-06-30 08:36:40,0.01,0.15,0.00,27.74,31.90,34.19,9.31,36.73,1007.82,2020.10,3405.36,3253.52,3534.99,499.94,484.69,24.81,0000 0000 0000 0000 000000
2014-06-30 08:41:41,0.01,0.15,0.00,27.76,31.91,34.21,9.30,36.77,1007.84,2020.11,3405.06,3253.18,3534.91,500.24,484.95,24.85,0000 0000 0000 0000 000000
2014-06-30 08:46:42,0.01,0.15,0.00,27.77,31.92,34.21,9.25,36.64,1007.85,2020.03,3404.99,3253.01,3534.24,499.66,484.41,24.89,0000 0000 0000 0000 000000
2014-06-30 08:51:43,0.01,0.15,0.00,27.77,31.93,34.23,9.36,36.77,1007.89,2020.01,3404.66,3252.99,3534.01,500.12,484.80,24.93,0000 0000 0000 0000 000000
2014-06-30 08:56:44,0.01,0.15,0.00,27.77,31.95,34.24,9.26,36.74,1008.10,2020.00,3404.06,3252.81,3533.96,499.97,484.71,24.97,0000 0000 0000 0000 000000
2014-06-30 09:01:45,0.01,0.15,0.00,27.80,31.95,34.24,9.35,36.67,1008.25,2020.01,3404.00,3252.49,3533.78,500.07,484.85,25.01,0000 0000 0000 0000 000000
2014-06-30 09:06:46,0.02,0.16,0.00,27.82,31.97,34.25,9.35,36.73,1008.31,2020.00,3403.95,3252.07,3533.12,500.05,484.68,25.06,0000 0000 0000 0000 000000
2014-06-30 09:11:47,0.01,0.16,0.00,27.84,31.97,34.26,9.40,37.09,1008.32,2020.00,3403.50,3252.00,3533.01,500.54,485.17,25.10,0000 0000 0000 0000 000000
2014-06-30 09:16:48,0.00,0.16,0.00,27.84,32.00,34.28,9.30,37.34,1008.33,2020.00,3403.01,3251.98,3532.95,500.08,484.81,25.14,0000 0000 0000 0000 000000
2014-06-30 09:21:49,0.00,0.16,0.00,27.84,32.00,34.29,9.28,37.13,1008.47,2020.00,3402.99,3251.91,3532.75,499.89,484.80,25.18,0000 0000 0000 0000 000000
2014-06-30 09:26:50,0.04,0.16,0.00,27.87,32.01,34.30,9.28,36.90,1008.71,2019.99,3402.72,3251.34,3532.10,499.74,484.67,25.22,0000 0000 0000 0000 000000
2014-06-30 09:31:51,0.01,0.16,0.00,27.90,32.02,34.31,9.29,37.03,1008.79,2019.97,3402.12,3251.02,3532.00,500.00,484.90,25.27,0000 0000 0000 0000 000000
2014-06-30 09:36:52,0.00,0.16,0.00,27.92,32.04,34.32,9.33,36.99,1008.80,2019.97,3402.01,3251.00,3531.98,500.07,484.94,25.31,0000 0000 0000 0000 000000
2014-06-30 09:41:54,0.00,0.16,0.00,27.92,32.05,34.33,9.30,36.82,1008.80,2019.96,3401.99,3251.00,3531.75,499.98,484.90,25.35,0000 0000 0000 0000 000000
2014-06-30 09:46:55,0.01,0.16,0.00,27.94,32.06,34.34,9.30,36.85,1008.81,2019.91,3401.89,3250.96,3531.19,500.18,485.06,25.39,0000 0000 0000 0000 000000
2014-06-30 09:51:56,0.01,0.16,0.00,27.98,32.07,34.35,9.29,36.78,1008.82,2019.89,3401.37,3250.84,3531.01,500.03,484.90,25.43,0000 0000 0000 0000 000000
2014-06-30 09:56:58,-0.00,0.16,0.00,27.99,32.09,34.37,9.28,36.66,1008.84,2019.66,3401.03,3250.28,3530.99,499.89,484.54,25.48,0000 0000 0000 0000 000000
2014-06-30 10:01:59,-0.02,0.16,0.00,28.00,32.10,34.39,9.32,36.58,1008.82,2019.34,3400.97,3250.01,3530.65,500.00,484.86,25.52,0000 0000 0000 0000 000000
2014-06-30 10:07:00,-0.00,0.16,0.00,28.03,32.12,34.39,9.37,36.77,1008.81,2019.13,3400.74,3250.00,3530.06,500.47,484.93,25.56,0000 0000 0000 0000 000000
2014-06-30 10:12:01,0.01,0.16,0.00,28.04,32.13,34.40,9.34,36.82,1008.81,2019.08,3400.10,3249.94,3530.00,500.14,484.94,25.60,0000 0000 0000 0000 000000
2014-06-30 10:17:02,0.01,0.16,0.00,28.06,32.15,34.42,9.41,36.97,1008.82,2019.01,3400.00,3249.51,3529.96,500.20,484.89,25.64,0000 0000 0000 0000 000000
2014-06-30 10:22:03,0.02,0.16,0.00,28.08,32.16,34.43,9.33,36.78,1008.83,2019.01,3399.87,3249.06,3529.34,500.48,485.09,25.69,0000 0000 0000 0000 000000
2014-06-30 10:27:04,0.01,0.16,0.00,28.10,32.18,34.45,9.29,36.79,1008.82,2019.00,3399.39,3249.00,3529.05,499.77,484.53,25.73,0000 0000 0000 0000 000000
2014-06-30 10:32:05,0.00,0.16,0.00,28.12,32.20,34.46,9.34,36.75,1008.91,2019.00,3399.02,3248.97,3528.99,500.19,484.64,25.77,0000 0000 0000 0000 000000
2014-06-30 10:37:06,0.02,0.16,0.00,28.09,32.22,34.49,9.30,36.91,1009.16,2019.00,3398.90,3248.65,3528.65,499.82,484.78,25.81,0000 0000 0000 0000 000000
2014-06-30 10:42:06,0.03,0.16,0.00,28.10,32.23,34.52,9.35,36.92,1009.27,2019.00,3398.25,3248.14,3528.10,499.88,484.69,25.85,0000 0000 0000 0000 000000
2014-06-30 10:47:07,0.00,0.16,0.00,28.13,32.25,34.53,9.35,36.77,1009.29,2018.97,3397.93,3248.00,3527.97,500.13,484.79,25.89,0000 0000 0000 0000 000000
2014-06-30 10:52:08,0.02,0.16,0.00,28.17,32.26,34.56,9.28,36.74,1009.29,2018.96,3397.40,3247.97,3527.64,500.02,484.86,25.94,0000 0000 0000 0000 000000
2014-06-30 10:57:10,0.02,0.17,0.00,28.22,32.27,34.57,9.27,36.78,1009.29,2018.93,3397.02,3247.72,3527.09,499.74,484.40,25.98,0000 0000 0000 0000 000000
2014-06-30 11:02:11,-0.01,0.17,0.00,28.25,32.30,34.60,9.40,36.79,1009.29,2018.80,3396.99,3247.22,3527.00,500.57,485.15,26.02,0000 0000 0000 0000 000000
2014-06-30 11:07:12,-0.01,0.17,0.00,28.28,32.30,34.62,9.26,36.78,1009.30,2018.58,3396.67,3247.01,3526.93,499.68,484.41,26.06,0000 0000 0000 0000 000000
2014-06-30 11:12:13,0.00,0.16,0.00,28.32,32.32,34.64,9.29,36.67,1009.29,2018.28,3396.09,3247.00,3526.35,499.97,484.50,26.10,0000 0000 0000 0000 000000
2014-06-30 11:17:15,-0.01,0.16,0.00,28.35,32.33,34.65,9.25,36.87,1009.29,2018.11,3396.00,3246.82,3526.01,500.09,484.46,26.15,0000 0000 0000 0000 000000
2014-06-30 11:22:16,0.01,0.16,0.00,28.36,32.35,34.66,9.39,36.87,1009.29,2018.05,3395.91,3246.46,3525.99,500.18,484.55,26.19,0000 0000 0000 0000 000000
2014-06-30 11:27:16,0.02,0.17,0.00,28.36,32.36,34.67,9.28,36.70,1009.29,2018.02,3395.22,3246.04,3525.87,500.01,484.41,26.23,0000 0000 0000 0000 000000
2014-06-30 11:32:18,0.01,0.17,0.00,28.37,32.37,34.69,9.23,36.74,1009.29,2018.00,3395.00,3246.00,3525.42,500.04,484.31,26.27,0000 0000 0000 0000 000000
2014-06-30 11:37:18,0.00,0.17,0.00,28.38,32.38,34.69,9.29,37.02,1009.29,2018.01,3394.99,3246.00,3525.14,499.75,483.99,26.31,0000 0000 0000 0000 000000
2014-06-30 11:42:19,0.00,0.17,0.00,28.39,32.40,34.71,9.29,36.92,1009.29,2018.01,3394.93,3246.00,3525.01,500.00,484.31,26.36,0000 0000 0000 0000 000000
2014-06-30 11:47:21,0.01,0.17,0.00,28.38,32.40,34.72,9.29,36.87,1009.29,2018.00,3394.42,3245.97,3525.00,499.92,484.32,26.40,0000 0000 0000 0000 000000
2014-06-30 11:52:22,0.01,0.17,0.00,28.34,32.40,34.72,9.38,36.95,1009.29,2018.00,3394.11,3245.84,3524.94,500.14,484.64,26.44,0000 0000 0000 0000 000000
2014-06-30 11:57:23,0.00,0.17,0.00,28.29,32.41,34.74,9.30,36.91,1009.29,2018.00,3394.00,3245.55,3524.81,499.86,484.10,26.48,0000 0000 0000 0000 000000
2014-06-30 12:02:24,0.02,0.17,0.00,28.23,32.42,34.74,9.34,36.94,1009.28,2018.00,3393.98,3245.16,3524.24,500.19,484.64,26.52,0000 0000 0000 0000 000000
2014-06-30 12:07:25,0.01,0.17,0.00,28.18,32.42,34.75,9.31,36.94,1009.29,2018.00,3393.78,3245.05,3524.05,500.27,484.82,26.56,0000 0000 0000 0000 000000
2014-06-30 12:12:26,0.01,0.17,0.00,28.13,32.42,34.76,9.32,36.81,1009.28,2018.00,3393.23,3245.00,3524.01,499.47,484.47,26.61,0000 0000 0000 0000 000000
2014-06-30 12:17:28,0.00,0.17,0.00,28.08,32.42,34.76,9.31,36.87,1009.26,2018.00,3393.01,3245.00,3523.99,499.94,484.91,26.65,0000 0000 0000 0000 000000
2014-06-30 12:22:28,-0.00,0.17,0.00,28.01,32.41,34.76,9.40,36.99,1009.27,2018.00,3393.00,3244.98,3523.93,500.69,485.54,26.69,0000 0000 0000 0000 000000
2014-06-30 12:27:29,-0.00,0.17,0.00,27.98,32.40,34.75,9.33,36.88,1009.29,2017.99,3392.97,3244.99,3523.85,500.08,485.03,26.73,0000 0000 0000 0000 000000
2014-06-30 12:32:30,0.01,0.17,0.00,27.93,32.40,34.74,9.31,36.74,1009.29,2017.99,3392.84,3244.97,3523.60,500.10,485.04,26.77,0000 0000 0000 0000 000000
2014-06-30 12:37:31,0.00,0.17,0.00,27.88,32.39,34.72,9.34,36.78,1009.30,2017.99,3392.58,3244.98,3523.49,499.68,484.78,26.82,0000 0000 0000 0000 000000
2014-06-30 12:42:32,0.01,0.17,0.00,27.83,32.37,34.71,9.30,36.88,1009.30,2017.99,3392.29,3244.98,3523.38,499.86,485.11,26.86,0000 0000 0000 0000 000000
2014-06-30 12:47:33,0.00,0.17,0.00,27.78,32.36,34.69,9.39,36.88,1009.30,2017.99,3392.04,3244.97,3523.08,500.35,485.54,26.90,0000 0000 0000 0000 000000
2014-06-30 12:52:34,0.00,0.17,0.00,27.74,32.35,34.68,9.40,36.76,1009.30,2018.00,3392.00,3244.96,3523.04,500.33,485.32,26.94,0000 0000 0000 0000 000000
2014-06-30 12:57:36,0.00,0.17,0.00,27.71,32.33,34.66,9.30,36.69,1009.29,2018.00,3391.99,3244.91,3523.02,500.06,485.56,26.98,0000 0000 0000 0000 000000
2014-06-30 13:02:37,0.00,0.17,0.00,27.69,32.32,34.65,9.51,36.76,1009.29,2018.00,3391.98,3244.94,3523.01,500.32,485.43,27.02,0000 0000 0000 0000 000000